Regional Weather Roundup
Issued by NWS Boston, MA

Home | Current Version | Previous Version | Text Only | Print | Product List | Glossary On
Versions: 1 2 3 4 5 6 7 8 9 10 11 12 13 14 15 16 17 18 19 20 21 22 23 24 25 26 27 28
000
ASUS41 KBOX 290710
RWRBOX

REGIONAL WEATHER ROUNDUP
NATIONAL WEATHER SERVICE TAUNTON MA
300 AM EDT FRI APR 29 2016

NOTE:  "FAIR" INDICATES FEW OR NO CLOUDS BELOW 12,000 FEET WITH NO
SIGNIFICANT WEATHER AND/OR OBSTRUCTIONS TO VISIBILITY.  THE FOLLOWING
OBSERVATION LOCATIONS DO NOT REPORT PRESENT WEATHER...PROVINCETOWN...
SMITHFIELD...BLOCK ISLAND...KEENE...AND OXFORD.

MAZALL-290800-
EASTERN MASSACHUSETTS

CITY           SKY/WX    TMP DP  RH WIND       PRES   REMARKS
BOSTON         CLOUDY    44  34  67 SE6       30.12R
BEVERLY        CLOUDY    43  35  73 SE7       30.11S
LAWRENCE       PTCLDY    42  35  76 E3        30.13S
BEDFORD        PTCLDY    42  33  70 E5        30.10R
BLUE HILL        N/A     41  32  70 SE7       30.08R
NORWOOD        CLOUDY    43  33  68 E3        30.11R
MARSHFIELD     CLOUDY    45  37  76 SE6       30.13R
PLYMOUTH       CLOUDY    43  36  76 E3        30.11R
TAUNTON        CLOUDY    47  35  63 CALM      30.10R
NEW BEDFORD    CLOUDY    45  37  73 E3        30.10R
$$

MAZALL-290800-
CAPE COD AND THE ISLANDS

CITY           SKY/WX    TMP DP  RH WIND       PRES   REMARKS
FALMOUTH         N/A     43  36  75 E5        30.10S
HYANNIS        CLOUDY    44  34  67 CALM      30.09S
CHATHAM        CLOUDY    44  35  70 E7        30.12R
PROVINCETOWN   CLOUDY    43  35  73 CALM      30.13R
NANTUCKET      CLOUDY    45  34  65 E10       30.09S
MARTHAS VNYRD  LGT RAIN  44  36  73 E5        30.09S
$$

MAZALL-290800-
CENTRAL AND WESTERN MASSACHUSETTS

CITY           SKY/WX    TMP DP  RH WIND       PRES   REMARKS
WORCESTER      PTCLDY    41  33  73 S3        30.07S
FITCHBURG      MOCLDY    43  31  62 N3        30.11R
ORANGE         CLOUDY    43  29  57 N5        30.09R
SPRINGFIELD    MOCLDY    46  35  65 CALM      30.07R
WESTFIELD      CLOUDY    46  36  68 CALM      30.08R
NORTH ADAMS    CLOUDY    46  19  34 E7        30.06S
PITTSFIELD     CLOUDY    43  19  38 E7        30.04S
$$

RIZALL-290800-
RHODE ISLAND

CITY           SKY/WX    TMP DP  RH WIND       PRES   REMARKS
PROVIDENCE     CLOUDY    45  34  65 CALM      30.10S
NEWPORT        CLOUDY    44  38  79 CALM      30.09R
BLOCK ISLAND   LGT RAIN  45  38  76 E7        30.10R
SMITHFIELD       N/A     43  34  70 CALM      30.09R
WESTERLY       LGT RAIN  44  38  79 CALM      30.11R
$$

CTZALL-290800-
CONNECTICUT

CITY           SKY/WX    TMP DP  RH WIND       PRES   REMARKS
BRADLEY INTL   CLOUDY    46  34  62 S7        30.07S
HARTFORD       LGT RAIN  47  39  74 SE3       30.09R
BRIDGEPORT     CLOUDY    49  39  68 E7        30.06F
DANBURY        CLOUDY    45  39  79 E5        30.06S
GROTON         LGT RAIN  44  42  93 E7        30.09R
NEW HAVEN      CLOUDY    46  40  79 NE6       30.06F
CHESTER        MIX PCPN  43  41  93 CALM      30.07S
MERIDEN        CLOUDY    46  41  82 CALM      30.08R
WILLIMANTIC    LGT RAIN  45  37  73 CALM      30.09S
OXFORD           N/A     43  37  81 CALM      30.07S
$$

MEZ002-015-021-024-NHZ003-005-008-011-012-014-VTZ005-008-290800-
NORTHERN NEW ENGLAND

CITY           SKY/WX    TMP DP  RH WIND       PRES   REMARKS
PORTLAND ME    PTCLDY    36  15  42 NE9       30.17S WCI  29
BANGOR ME      CLEAR     28  13  53 CALM      30.20S
CONCORD NH     CLOUDY    40  27  59 NE9       30.13S
MANCHESTER NH  CLOUDY    40  34  79 NE7       30.11R
NASHUA NH      PTCLDY    41  35  79 CALM      30.12R
PORTSMOUTH NH  CLOUDY    39  30  70 NE9       30.13R
JAFFREY NH     CLOUDY    38  28  67 CALM      30.09R
KEENE NH       CLOUDY    41  21  45 N3        30.10R
BURLINGTON VT  FAIR      31  19  61 CALM      30.14F
MT. WASHINGTON PTCLDY    19   0  42 W25         N/A  WCI   2
$$

NYZ052-076-290800-
EASTERN NEW YORK

CITY           SKY/WX    TMP DP  RH WIND       PRES   REMARKS
ALBANY         CLOUDY    39  19  44 N10       30.09S
NEW YORK CITY  CLOUDY    50  36  58 E6        30.04F
$$

ANZALL-290800-
MARINE OBSERVATIONS

STATION/POSITION TIME  TEMP    WIND        PRES    VSBY  WAVE
                       AIR SEA DIR/SP/G                  HT/PER
                 (UTC) (F)     (DEG/KT/KT) (MB)    (MI)  (FT/S)
BOSTON BUOY      0650   45 46  110/  6/  8 1018.9R         2/11
BUZZARDS BAY     0700   44      90/  9/ 10 1019.6R
NANTUCKET SOUND  0650   45 49  100/ 10/ 14 1019.0S         1/ 3
MASS BAY-STELLWA 0604   44 45                N/A    1 7/8  2/ 8
ISLE OF SHOALS   0700   44      40/ 11/ 14 1019.7R
S OF BLOCK IS    NOT AVBL
$$

......................KEY.........................
  SKY/WX - SKY CONDITION/PRESENT WEATHER
  TMP    - TEMPERATURE IN FAHRENHEIT
  DWPT   - DEWPOINT IN FAHRENHEIT
  RH     - RELATIVE HUMIDITY IN PERCENT
  WIND   - DIRECTION AND SPEED IN MPH
  PRES   - MEAN SEA LEVEL PRESSURE IN INCHES OF HG
  WCI    - WIND CHILL INDEX
  VSB    - VISIBILITY IN MILES
  HX     - HEAT INDEX
  TC     - TEMPERATURE IN CELSIUS
  VRB    - VARIABLE WIND DIRECTION
  N/A    - NOT AVAILABLE




USA.gov is the U.S. government's official web portal to all federal, state and local government web resources and services.